Rexburg, ID

6:23 PM MDT on October 20, 2017 (GMT -0600)
Rexburg-Madison County

Weather History for KRXE - March, 2014

Change the Weather History Date:

Monday, March 10, 2014

  Actual Average Record
Temperature  
Mean Temperature 40 °F 32 °F  
Max Temperature 48 °F 42 °F 60 °F (2015)
Min Temperature 32 °F 21 °F 4 °F (2006)
Degree Days  
Heating Degree Days 25 33  
Month to date heating degree days 282 355  
Since 1 July heating degree days 6097 6328  
Cooling Degree Days 0 0  
Month to date cooling degree days 0 0  
Year to date cooling degree days 0 0  
Moisture  
Dew Point 33 °F    
Average Humidity 73    
Maximum Humidity 92    
Minimum Humidity 53    
Precipitation  
Precipitation 0.17 in 0.02 in 0.22 in (2007)
Month to date precipitation 0.47 0.27  
Year to date precipitation 1.87 1.84  
Sea Level Pressure  
Sea Level Pressure 29.88 in    
Wind  
Wind Speed 14 mph (SSW)    
Max Wind Speed 36 mph    
Max Gust Speed 44 mph    
Visibility 9 miles    
Events Rain , Snow    
T = Trace of Precipitation, MM = Missing Value Source: NWS Daily Summary

Daily Weather History Graph

Daily Weather History Graph

Search for Another Location

Airport or City:

Trip Planner

Search our weather history database for the weather conditions in past years. The results will help you decide how hot, cold, wet, or windy it might be!

Date:

Astronomy

Mar. 10, 2014 Rise Set
Actual Time 7:48 AM MDT 7:27 PM MDT
Civil Twilight 7:19 AM MDT 7:56 PM MDT
Nautical Twilight 6:46 AM MDT 8:29 PM MDT
Astronomical Twilight 6:12 AM MDT 9:03 PM MDT
Moon 2:06 PM MDT (3/10) 4:10 AM MDT (3/10)
Length of Visible Light 12h 36m
Length of Day
11h 39m
Waxing Gibbous, 70% of the Moon is Illuminated
Mar 10
Waxing Gibbous
Mar 16
Full
Mar 23
Last Quarter
Mar 30
New
Apr 7
First Quarter

Hourly Weather History & Observations

Time (MDT) Temp. Windchill Dew Point Humidity Pressure Visibility Wind Dir Wind Speed Gust Speed Precip Events Conditions
12:12 AM 45.0 °F 38.9 °F 30.9 °F 58% 30.08 in 10.0 mi South 12.7 mph - N/A   Overcast
12:53 AM 45.0 °F 40.6 °F 30.9 °F 58% 30.06 in 10.0 mi South 8.1 mph - 0.00 in Rain Light Rain
1:53 AM 44.1 °F 39.0 °F 34.0 °F 68% 30.04 in 10.0 mi South 9.2 mph - 0.00 in   Overcast
2:53 AM 44.1 °F 38.1 °F 33.1 °F 65% 30.01 in 10.0 mi South 11.5 mph - N/A   Overcast
3:53 AM 44.1 °F 37.1 °F 35.1 °F 71% 29.98 in 10.0 mi South 15.0 mph 21.9 mph N/A   Overcast
4:53 AM 44.1 °F 38.6 °F 35.1 °F 71% 29.94 in 10.0 mi South 10.4 mph 18.4 mph N/A   Overcast
5:53 AM 44.1 °F 38.1 °F 34.0 °F 68% 29.91 in 10.0 mi South 11.5 mph 17.3 mph N/A   Partly Cloudy
6:53 AM 45.0 °F 37.6 °F 32.0 °F 60% 29.87 in 10.0 mi South 17.3 mph 25.3 mph N/A   Clear
7:53 AM 45.0 °F 38.9 °F 32.0 °F 60% 29.86 in 10.0 mi South 12.7 mph - N/A   Clear
8:53 AM 45.0 °F 39.7 °F 32.0 °F 60% 29.84 in 10.0 mi SSW 10.4 mph - N/A   Mostly Cloudy
9:53 AM 46.0 °F 40.6 °F 33.1 °F 61% 29.83 in 10.0 mi West 11.5 mph - N/A   Overcast
10:53 AM 46.0 °F 40.6 °F 30.9 °F 56% 29.82 in 10.0 mi SSW 11.5 mph 20.7 mph N/A   Overcast
11:53 AM 46.9 °F - 34.0 °F 61% 29.82 in 10.0 mi SW 17.3 mph - N/A   Overcast
12:53 PM 46.9 °F - 34.0 °F 61% 29.80 in 10.0 mi SW 18.4 mph 38.0 mph N/A   Mostly Cloudy
1:17 PM 46.0 °F 37.4 °F 35.1 °F 66% 29.82 in 10.0 mi SW 25.3 mph 35.7 mph N/A   Overcast
1:45 PM 46.9 °F - 36.0 °F 66% 29.82 in 10.0 mi SW 24.2 mph 36.8 mph N/A   Overcast
1:53 PM 46.0 °F 37.0 °F 36.0 °F 68% 29.80 in 10.0 mi SW 27.6 mph 35.7 mph 0.00 in Rain Light Rain
2:49 PM 42.8 °F 32.7 °F 35.6 °F 76% 29.81 in 10.0 mi SW 27.6 mph 34.5 mph 0.00 in Rain Light Rain
2:53 PM 42.1 °F 33.6 °F 37.0 °F 82% 29.80 in 10.0 mi SW 18.4 mph 34.5 mph 0.01 in Rain Light Rain
3:53 PM 42.1 °F 33.1 °F 37.9 °F 85% 29.76 in 10.0 mi SSW 20.7 mph 29.9 mph 0.00 in Rain Light Rain
4:31 PM 42.1 °F 32.6 °F 36.0 °F 79% 29.74 in 10.0 mi SSW 23.0 mph 35.7 mph 0.00 in   Overcast
4:53 PM 42.1 °F 32.8 °F 36.0 °F 79% 29.73 in 10.0 mi SSW 21.9 mph 39.1 mph 0.00 in   Mostly Cloudy
5:11 PM 41.0 °F 30.7 °F 36.0 °F 82% 29.76 in 10.0 mi SSW 25.3 mph 36.8 mph N/A   Mostly Cloudy
5:53 PM 39.9 °F 28.8 °F 34.0 °F 79% 29.76 in 10.0 mi SSW 27.6 mph 42.6 mph N/A   Overcast
6:53 PM 39.0 °F 27.8 °F 34.0 °F 82% 29.78 in 10.0 mi SSW 26.5 mph 36.8 mph 0.00 in Rain Light Rain
7:46 PM 33.1 °F 25.5 °F 30.9 °F 92% 29.84 in 2.5 mi North 9.2 mph - 0.07 in Snow Light Snow
7:53 PM 32.0 °F 25.6 °F 30.9 °F 96% 29.87 in 1.5 mi NW 6.9 mph - 0.08 in Snow Light Snow
8:10 PM 32.0 °F 23.0 °F 30.9 °F 96% 29.89 in 2.0 mi SW 11.5 mph - 0.03 in Snow Light Snow
8:18 PM 32.0 °F 24.2 °F 32.0 °F 100% 29.90 in 1.0 mi SSW 9.2 mph - 0.04 in Snow Light Snow
8:43 PM 32.0 °F 25.6 °F 30.9 °F 96% 29.89 in 2.0 mi South 6.9 mph - 0.08 in Snow Light Snow
8:47 PM 32.0 °F 28.7 °F 32.0 °F 100% 29.88 in 4.0 mi Variable 3.5 mph - 0.08 in Snow Light Snow
8:53 PM 33.1 °F 26.9 °F 30.9 °F 92% 29.89 in 9.0 mi ENE 6.9 mph - 0.08 in Snow Light Snow
9:05 PM 34.0 °F 31.0 °F 30.0 °F 85% 29.88 in 10.0 mi NW 3.5 mph - 0.00 in   Overcast
9:53 PM 33.1 °F 26.1 °F 30.9 °F 92% 29.91 in 10.0 mi SSW 8.1 mph - 0.00 in   Overcast
10:30 PM 32.0 °F 22.1 °F 30.9 °F 96% 29.91 in 10.0 mi South 13.8 mph - N/A   Overcast
10:39 PM 32.0 °F 24.2 °F 30.9 °F 96% 29.91 in 10.0 mi South 9.2 mph - N/A   Overcast
10:53 PM 32.0 °F 24.8 °F 30.9 °F 96% 29.94 in 10.0 mi SSW 8.1 mph - N/A   Overcast
11:08 PM 32.0 °F 24.2 °F 30.9 °F 96% 29.93 in 10.0 mi South 9.2 mph - N/A   Overcast
11:33 PM 33.1 °F 27.7 °F 30.0 °F 89% 29.93 in 7.0 mi WNW 5.8 mph - 0.00 in Snow Light Snow
11:43 PM 34.0 °F 28.0 °F 28.9 °F 82% 29.94 in 10.0 mi West 6.9 mph - 0.00 in   Overcast
11:53 PM 35.1 °F - 28.0 °F 76% 29.95 in 9.0 mi Calm Calm - 0.00 in Snow Light Snow